When you browse on this site, cookies collect data to enhance your experience and personalize the content and advertising you see.
Visit our Privacy Policy to learn more. By continuing to use the site, you agree to this use of cookies and data.
  • In Belgien
  • Länderverzeichnis
  • Für 7 Tage
  • Wassertemperatur
  • Wetterkarte
  • Widgets
  • user-avatar
    Anmelden

    Stündliche Wetter Pasynki

    Heute, 16 Februar, Sonntag

    Zeit Temperatur Niederschläge Wind Luftdruck Luftfeuchtigkeit
    00:00 -6°C° 0 mm 1 m/S 754 mmHg 95%
    01:00 -6°C° 0 mm 1 m/S 754 mmHg 96%
    02:00 -4°C° 0 mm 1 m/S 754 mmHg 96%
    03:00 -3°C° 0 mm 1 m/S 754 mmHg 99%
    04:00 -2°C° 0 mm 1 m/S 754 mmHg 99%
    05:00 -4°C° 0 mm 2 m/S 755 mmHg 98%
    06:00 -3°C° 0 mm 2 m/S 755 mmHg 98%
    07:00 -3°C° 0 mm 2 m/S 755 mmHg 97%
    08:00 -3°C° 0 mm 2 m/S 755 mmHg 97%
    09:00 -3°C° 0 mm 2 m/S 755 mmHg 95%
    10:00 -2°C° 0 mm 3 m/S 755 mmHg 95%
    11:00 -2°C° 0 mm 3 m/S 755 mmHg 94%
    12:00 -2°C° 0 mm 4 m/S 755 mmHg 94%
    13:00 -2°C° 0 mm 4 m/S 754 mmHg 93%
    14:00 -2°C° 0 mm 4 m/S 754 mmHg 93%
    15:00 -2°C° 0 mm 4 m/S 754 mmHg 93%
    16:00 -2°C° 0 mm 4 m/S 754 mmHg 94%
    17:00 -1°C° 0 mm 5 m/S 754 mmHg 95%
    18:00 -1°C° 0 mm 5 m/S 754 mmHg 96%
    19:00 -2°C° 0 mm 6 m/S 754 mmHg 95%
    20:00 -2°C° 0 mm 6 m/S 753 mmHg 93%
    21:00 -2°C° 0 mm 6 m/S 753 mmHg 92%
    22:00 -2°C° 0 mm 6 m/S 753 mmHg 92%
    23:00 -2°C° 0 mm 7 m/S 752 mmHg 92%

    Morgen, 17 Februar, Montag

    Zeit Temperatur Niederschläge Wind Luftdruck Luftfeuchtigkeit
    00:00 -2°C° 0 mm 7 m/S 752 mmHg 91%
    01:00 -2°C° 0 mm 7 m/S 752 mmHg 91%
    02:00 -2°C° 0 mm 8 m/S 751 mmHg 90%
    03:00 -4°C° 0 mm 8 m/S 751 mmHg 89%
    04:00 -4°C° 0 mm 8 m/S 750 mmHg 87%
    05:00 -4°C° 0 mm 8 m/S 750 mmHg 85%
    06:00 -5°C° 0 mm 9 m/S 749 mmHg 82%
    07:00 -5°C° 0 mm 9 m/S 749 mmHg 81%
    08:00 -4°C° 0 mm 9 m/S 749 mmHg 80%
    09:00 -4°C° 0 mm 9 m/S 749 mmHg 78%
    10:00 -4°C° 0 mm 9 m/S 748 mmHg 78%
    11:00 -3°C° 0 mm 9 m/S 748 mmHg 77%
    12:00 -3°C° 0 mm 10 m/S 747 mmHg 77%
    13:00 -3°C° 0 mm 10 m/S 747 mmHg 77%
    14:00 -2°C° 0 mm 10 m/S 747 mmHg 77%
    15:00 -2°C° 0 mm 10 m/S 747 mmHg 77%
    16:00 -3°C° 0 mm 10 m/S 746 mmHg 77%
    17:00 -3°C° 0 mm 9 m/S 746 mmHg 77%
    18:00 -3°C° 0 mm 9 m/S 746 mmHg 77%
    19:00 -3°C° 0 mm 9 m/S 746 mmHg 77%
    20:00 -1°C° 0 mm 9 m/S 747 mmHg 78%
    21:00 -1°C° 0 mm 8 m/S 747 mmHg 79%
    22:00 -1°C° 0 mm 8 m/S 747 mmHg 80%
    23:00 -1°C° 0 mm 8 m/S 746 mmHg 81%

    übermorgen, 18 Februar, Dienstag

    Zeit Temperatur Niederschläge Wind Luftdruck Luftfeuchtigkeit
    00:00 -1°C° 0 mm 7 m/S 746 mmHg 82%
    01:00 -1°C° 0 mm 7 m/S 746 mmHg 84%
    02:00 -1°C° 0 mm 7 m/S 746 mmHg 86%
    03:00 -2°C° 0 mm 6 m/S 746 mmHg 87%
    04:00 -2°C° 0.4 mm 6 m/S 746 mmHg 89%
    05:00 -2°C° 0.4 mm 6 m/S 746 mmHg 91%
    06:00 -2°C° 0.4 mm 6 m/S 745 mmHg 93%
    07:00 -2°C° 0.3 mm 6 m/S 745 mmHg 93%
    08:00 -2°C° 0.3 mm 6 m/S 745 mmHg 92%
    09:00 -1°C° 0.3 mm 5 m/S 745 mmHg 92%
    10:00 -1°C° 0.1 mm 5 m/S 745 mmHg 93%
    11:00 -1°C° 0.1 mm 5 m/S 745 mmHg 95%
    12:00 -1°C° 0.1 mm 5 m/S 744 mmHg 96%
    13:00 -1°C° 0.2 mm 5 m/S 744 mmHg 96%
    14:00 -1°C° 0.2 mm 5 m/S 744 mmHg 97%
    15:00 -1°C° 0.2 mm 5 m/S 743 mmHg 98%
    16:00 -1°C° 0.1 mm 5 m/S 743 mmHg 97%
    17:00 -1°C° 0.1 mm 5 m/S 742 mmHg 96%
    18:00 -1°C° 0.1 mm 5 m/S 742 mmHg 94%
    19:00 -1°C° 0.1 mm 5 m/S 742 mmHg 95%
    20:00 -1°C° 0.1 mm 5 m/S 742 mmHg 95%
    21:00 -1°C° 0.1 mm 4 m/S 742 mmHg 96%
    22:00 -1°C° 0.3 mm 4 m/S 742 mmHg 97%
    23:00 0°C° 0.3 mm 3 m/S 742 mmHg 98%

    19 Februar, Mittwoch

    Zeit Temperatur Niederschläge Wind Luftdruck Luftfeuchtigkeit
    00:00 0°C° 0.3 mm 3 m/S 742 mmHg 99%
    01:00 0°C° 0 mm 3 m/S 742 mmHg 99%
    02:00 0°C° 0 mm 3 m/S 742 mmHg 99%
    03:00 +1°C° 0 mm 2 m/S 742 mmHg 99%
    04:00 0°C° 0 mm 3 m/S 742 mmHg 98%
    05:00 -1°C° 0 mm 3 m/S 742 mmHg 98%
    06:00 -2°C° 0 mm 4 m/S 742 mmHg 98%
    07:00 -2°C° 0 mm 4 m/S 743 mmHg 98%
    08:00 -2°C° 0 mm 4 m/S 743 mmHg 97%
    09:00 -1°C° 0 mm 5 m/S 743 mmHg 97%
    10:00 -1°C° 0 mm 4 m/S 743 mmHg 98%
    11:00 -1°C° 0 mm 4 m/S 744 mmHg 99%
    12:00 -1°C° 0 mm 4 m/S 744 mmHg 99%
    13:00 -1°C° 0 mm 4 m/S 744 mmHg 98%
    14:00 -1°C° 0 mm 4 m/S 744 mmHg 96%
    15:00 -1°C° 0 mm 4 m/S 744 mmHg 95%
    16:00 -2°C° 0 mm 4 m/S 744 mmHg 94%
    17:00 -2°C° 0 mm 4 m/S 744 mmHg 93%
    18:00 -2°C° 0 mm 3 m/S 744 mmHg 92%
    19:00 -1°C° 0 mm 3 m/S 745 mmHg 91%
    20:00 -1°C° 0 mm 3 m/S 745 mmHg 90%
    21:00 -1°C° 0 mm 2 m/S 745 mmHg 89%
    22:00 -1°C° 0 mm 2 m/S 745 mmHg 89%
    23:00 -1°C° 0 mm 2 m/S 745 mmHg 88%

    20 Februar, Donnerstag

    Zeit Temperatur Niederschläge Wind Luftdruck Luftfeuchtigkeit
    00:00 +1°C° 0 mm 1 m/S 745 mmHg 87%
    01:00 -1°C° 0 mm 2 m/S 746 mmHg 87%
    02:00 -1°C° 0 mm 2 m/S 746 mmHg 87%
    03:00 -1°C° 0 mm 2 m/S 746 mmHg 87%
    04:00 -1°C° 0 mm 2 m/S 746 mmHg 89%
    05:00 -1°C° 0 mm 2 m/S 746 mmHg 91%
    06:00 -1°C° 0 mm 3 m/S 746 mmHg 92%
    07:00 -2°C° 0 mm 3 m/S 746 mmHg 94%
    08:00 -2°C° 0 mm 3 m/S 746 mmHg 95%
    09:00 -2°C° 0 mm 3 m/S 746 mmHg 96%
    10:00 -1°C° 0 mm 3 m/S 746 mmHg 97%
    11:00 -1°C° 0 mm 3 m/S 746 mmHg 98%
    12:00 -1°C° 0 mm 3 m/S 746 mmHg 98%
    13:00 -1°C° 0 mm 3 m/S 746 mmHg 98%
    14:00 -1°C° 0 mm 3 m/S 746 mmHg 99%
    15:00 -1°C° 0 mm 3 m/S 746 mmHg 99%
    16:00 -1°C° 0 mm 3 m/S 746 mmHg 98%
    17:00 -1°C° 0 mm 3 m/S 746 mmHg 97%
    18:00 -1°C° 0 mm 3 m/S 746 mmHg 96%
    19:00 -1°C° 0 mm 2 m/S 746 mmHg 96%
    20:00 -1°C° 0 mm 2 m/S 747 mmHg 95%
    21:00 -1°C° 0 mm 2 m/S 747 mmHg 95%
    22:00 -1°C° 0 mm 2 m/S 747 mmHg 95%
    23:00 -1°C° 0 mm 2 m/S 747 mmHg 95%

    21 Februar, Freitag

    Zeit Temperatur Niederschläge Wind Luftdruck Luftfeuchtigkeit
    00:00 -1°C° 0 mm 2 m/S 747 mmHg 95%
    01:00 -1°C° 0 mm 2 m/S 747 mmHg 95%
    02:00 -1°C° 0 mm 2 m/S 747 mmHg 96%
    03:00 +1°C° 0 mm 1 m/S 747 mmHg 96%
    04:00 +1°C° 0 mm 1 m/S 747 mmHg 96%
    05:00 +1°C° 0 mm 1 m/S 747 mmHg 96%
    06:00 +1°C° 0 mm 1 m/S 747 mmHg 96%
    07:00 +1°C° 0 mm 1 m/S 747 mmHg 97%
    08:00 +1°C° 0 mm 1 m/S 747 mmHg 97%
    09:00 -1°C° 0 mm 2 m/S 747 mmHg 97%
    16:00 +1°C° 0 mm 1 m/S 747 mmHg 98%
    17:00 0°C° 0 mm 1 m/S 747 mmHg 97%
    18:00 0°C° 0 mm 1 m/S 747 mmHg 96%
    19:00 0°C° 0 mm 1 m/S 747 mmHg 96%
    20:00 0°C° 0 mm 1 m/S 747 mmHg 96%
    21:00 -1°C° 0 mm 1 m/S 747 mmHg 96%
    22:00 -1°C° 0 mm 1 m/S 747 mmHg 96%
    23:00 -1°C° 0 mm 1 m/S 747 mmHg 96%
    Mehr zeigen